User: anonymous   Login
Location: Browne Barr
(41.2080°N, 111.9480°W)
Time: 10:43:23
(UTC+00:00)
Language:

Tiangong - Orbit

View from above orbital plane
View from above orbital plane
View from above satellite
View from above satellite

Ground track
Ground track

The orbit data is extracted from the following two-line orbital elements,

1 48274U 21035A   21269.82184662  .00004799  00000-0  58708-4 0  9994
2 48274  41.4712  23.0600 0001741 331.3712 168.5326 15.61324515 23593
Epoch (UTC): 26 September 2021 19:43:27
Eccentricity: 0.0001741
inclination: 41.4712°
perigee height: 382 km
apogee height: 385 km
right ascension of ascending node: 23.0600°
argument of perigee: 331.3712°
revolutions per day: 15.61324515
mean anomaly at epoch: 168.5326°
orbit number at epoch: 2359

The dashed part of the orbit path shows where the satellite is in the earth's shadow,  

DLR